作者susanoo (多言賈禍)
看板SuperBike
標題[轉錄][新聞] 德999cc重機 極速320公里
時間Mon Dec 28 13:39:44 2009
※ [本文轉錄自 Gossiping 看板]
作者: moxv (堅定) 看板: Gossiping
標題: [新聞] 德999cc重機 極速320公里
時間: Mon Dec 28 11:59:40 2009
德999cc重機 極速320公里
2009-12-28
中國時報 【陳文和/綜合報導】
德國造車工藝向來備受推崇,AsphaltFighter公司最近更締造新猷,推出了九九九
CC、二八○匹馬力、極速超過時速三二○公里的重型機車「Stormbringer」,性能與價格
同樣令人歎為觀止。
Stormbringer採用四汽缸、四閥門引擎,引擎轉速達一三五○○rpm時,擁有二二
○匹馬力,而時速超過一八○公里時,更可提升到最高二八○匹馬力。從靜止加速到時速
一○○公里,只需二.九秒,加速到三○○公里也只需一三.九秒。
Stormbringer的車重還不到兩百公斤,不但限量生產,而且為客戶量身打造,可以
配合客戶的體重來調整懸吊系統,依客戶的騎乘習慣調整座椅配置。售價定為五萬七千五
百歐元,約合新台幣二六七萬元。
除了性能驚人之外,Stormbringer的配備也超乎想像。藉由座椅後方的攝影機,騎
士可以從油箱上的五吋液晶顯示幕上掌握後方路況,不再需要傳統的後視鏡;車速則投影
在機車的擋風玻璃上。
其他高檔配備還包括十段循跡控制系統、起跑控制系統、可設定速限的限速器等。
http://0rz.com/YJfT
--
※ 發信站: 批踢踢實業坊(ptt.cc)
◆ From: 75.26.160.192
1F:→ clkdtm32:NASTY 12/28 12:00
2F:→ hanbin:不懂 不是有一台『隼』可以破3XX嗎 12/28 12:00
3F:→ madsperm:267萬..買台車不是比較舒適.... 12/28 12:01
4F:→ hkh0003:隼的馬力比較小 12/28 12:01
5F:推 gargamel:高雄到台北只要兩小時 12/28 12:01
6F:→ v800982004:兩輪是男人的浪漫~ 12/28 12:01
7F:推 dahIia:隼要1300 c.c. 以上 記的好像是1380c.c.左右 12/28 12:01
8F:→ hkh0003:不過馬力做到那麼大根本沒意義XD 因為人類控制不了 12/28 12:01
9F:→ clkdtm32:隼那台不是還有裝渦輪? 12/28 12:01
10F:推 zarate:有這樣的技術 剛彈快做好了嗎 12/28 12:02
11F:推 ImAkemi:俗! 12/28 12:02
12F:推 mi2ery:以前不是有一台Y2K什麼的?那台可以破300嗎? 12/28 12:02
13F:→ domago:七天 只要七天... 12/28 12:02
14F:→ turtao:隼便宜多了.....才不到60萬.... 12/28 12:02
15F:推 Hollowcorpse:比大c.c 數Rocket III也很嗆啊 不過這台還蠻好看的 12/28 12:02
16F:推 nilcc:原廠隼沒渦輪 12/28 12:03
17F:推 f1234518456:跟汽車對撞會晚七天嗎??? 12/28 12:03
18F:→ kgh:267萬 可以買兩台進口車 12/28 12:03
19F:推 blueeguitar:渦輪隼那台是ghost rider那台499匹的吧 不是原廠的 12/28 12:04
20F:推 clkdtm32:二樓說有一台隼...是在說那台隼 不過不用裝也可以到三百 12/28 12:04
21F:→ turtao:ghost rider那台499匹的快300km下還一直孤輪...... 12/28 12:04
22F:推 sinon17:以台灣的路面...大概沒多久可能就要辦後事了... 12/28 12:06
24F:推 wyvernlee:傳說,騎到極速可以體會升天感覺的摩托車!! 12/28 12:06
25F:→ hanbin:請問一下 我的atilla 125跟內文這輛比誰較快? 12/28 12:06
26F:推 haha31:我想要K1300S 12/28 12:06
27F:推 cafelife:馬力這麼強大的重機 不太適合在台灣的路上騎 12/28 12:07
28F:推 blueeguitar:Y2K 是用直升機發動機 噴射的 12/28 12:07
29F:→ hanbin:義大利有一位叫ROSSI說他看不到我的車尾燈 12/28 12:07
30F:推 ImAkemi:Atilla 1250比較快 12/28 12:07
31F:→ Victor97:你的車尾燈在台灣 羅西當然看不到 12/28 12:07
32F:推 goodga:能買這台的人,早就有好幾台高級跑車了 12/28 12:08
33F:推 Hollowcorpse:在你前面當然看不到你的車尾燈 12/28 12:08
34F:推 kisse04:四樓不是人類 他控制的了! 12/28 12:08
35F:推 kksmart:讓我想到鬼塚的ZII XD 12/28 12:09
36F:推 balawalking:摔車就真的是一了百了了XD 12/28 12:09
37F:推 haha31:看那影片 0-100很慢阿.. 12/28 12:09
38F:推 bbbruce:太屌了 12/28 12:10
39F:推 ninewords:樓上,最外圍是英里喔.....= = 12/28 12:10
40F:→ haha31:喔喔 對齁 拍謝 耍笨了 12/28 12:11
41F:→ ninewords:而且他剛開始根本沒加什麼油門.... 12/28 12:11
42F:→ haha31:好像還是花了差不多7秒@@? 12/28 12:12
43F:推 jambobo:騎這種車雷纏會比較帥嗎XD 12/28 12:12
44F:→ haha31:感覺前面沒全力跑 12/28 12:12
45F:推 Hollowcorpse:光是能買就很帥了還要等到雷嗎? 12/28 12:13
46F:推 bismarcp:這車一牽出車庫附近的男人都跪下來了吧 12/28 12:13
47F:→ hanbin:267萬的機車叫人跪下? 眼界格局也太小了 12/28 12:14
48F:推 newbiegg:這台車從台灣訂購附贈塔位一個 12/28 12:15
49F:推 yrhhimamr:手會很酸吧!? 12/28 12:15
50F:推 Gandhi5566:大概是馬力太大 怕油門拉太大力 前輪浮舉就摔了 12/28 12:15
51F:→ ninewords:影片重點其實是在時速100附近還孤輪的加速力+極速XD 12/28 12:17
52F:推 Victor97:後面的孤輪加速真的很扯 12/28 12:17
53F:推 mi2ery:這類的車很屌啦!!但台灣不適合.要去國外啦!! 12/28 12:17
54F:→ mi2ery:路面濫,人又多,出個車禍還要拉別人下水 12/28 12:18
55F:→ ninewords:台灣跑車光停紅綠燈水溫就快破表了XD 12/28 12:18
56F:→ Dunlop:隼0-100只要兩秒 這影片沒認真催 12/28 12:19
57F:推 laukun:320 差不多是moto GP直道速度... 12/28 12:19
58F:→ Victor97:樓樓上輪胎 12/28 12:21
59F:推 icome:給蝙蝠俠騎的嗎 12/28 12:22
60F:→ Dunlop:不是 我是球拍 12/28 12:22
61F:→ toya123:應該很重 12/28 12:22
62F:→ toya123:只要出車禍被車壓到大概就GG了 12/28 12:23
64F:推 cheer16max:999c.c....280hp 320km/hr 巴死一堆2 3公升的四輪... 12/28 12:23
65F:推 linhsiuwei:騎這麼快視覺其實跟不上 12/28 12:24
66F:推 chejrk:好怕的加速.... 12/28 12:24
67F:推 ninewords:200KM 就覺得看的東西都霧的了= = 12/28 12:26
68F:推 gg123sf:這應該是直接把MotoGP的車子拿出來賣了吧 科科 12/28 12:26
69F:推 FrankTripp:才320 MotoGP的只要800cc就有350Km/h的實力了 12/28 12:27
70F:推 kobe089:小動物跑出來 或地上有凹洞 就GG了 12/28 12:28
71F:噓 hrc1098:跑的贏勁戰嗎? 12/28 12:28
72F:→ JoshBeckeet:我比較愛日系重機.. 12/28 12:29
73F:→ tyrande:hrc1098:跑的贏勁戰嗎? (!?) 12/28 12:29
75F:推 playerst:你不懂我這臺車的價值XD 12/28 12:29
76F:推 Gandhi5566:看圖感覺空力沒有很好耶 真的能跑320kph嗎 12/28 12:29
77F:→ yvmi:人要比車兇 12/28 12:30
78F:推 Yatta:市售車不能跟廠車比阿 12/28 12:30
79F:推 toya123:台灣不適合騎 因為道路凹凹凸凸隨時會秒殺駕駛Y 12/28 12:30
80F:推 Kael:我怎麼不覺得牽出車庫,附近的男人會跪下來? 12/28 12:31
81F:推 cheer16max:Bugatti Veyron表示: 地表上量產超跑還是我最猛 12/28 12:32
82F:推 ccc73123:隼的原廠極速317公里 12/28 12:34
83F:推 horsee:車在怎麼好也要有好的車手... 山葉王朝 12/28 12:34
84F:→ UmbraEric:老新聞了,其實那是改裝廠弄的,是用KAWASAKI的10R做底改 12/28 12:35
85F:→ terry1043:風見準人 12/28 12:35
86F:→ ninewords:X陽副總:人的能量決定車的力量 12/28 12:35
87F:→ UmbraEric:的車款,原廠就有19x ps的實力 12/28 12:36
88F:推 InfinitySA:競戰大概還比不上它一個輪子.... 12/28 12:37
89F:→ philchi320:320開車撞到都會死了 還騎機車 12/28 12:37
90F:推 JoshBeckeet:1000RR都比這台兇>////< 12/28 12:37
91F:推 horsee:我的螃蟹車也很兇喔! 12/28 12:39
92F:推 slang:ROSSI跑你前面,當然看不到你的車尾燈,搞不好車頭燈都看無 12/28 12:46
93F:推 TiaraWei:車的力量決定龍的重量 12/28 12:47
95F:推 erp44:東方人的肌力與體型不太適合騎重機 12/28 12:59
96F:→ hanbin:我的atilla到底贏MOTOGP幾秒啦 12/28 13:00
97F:→ erp44:看過太多瘦皮猴跟紙片女 連騎125都會飆到失速摔車... 12/28 13:05
98F:推 ninewords:根本沒關係.........扯到什麼東方人= = 12/28 13:13
99F:推 eterbless:看看今年motogp250冠軍再來考慮要不要說這句話吧 12/28 13:21
100F:推 P23:把 728萬的MV F4cc 放在哪裡!! 12/28 13:34
101F:推 MysterySW:鬼塚也曾在灣岸上騎到300 把一個不怕死的給嚇得要死 12/28 13:39
--
※ 發信站: 批踢踢實業坊(ptt.cc)
◆ From: 163.17.122.175
102F:推 ggiirrllkk :GG......................... 12/28 13:53
103F:→ fuso320 : 姐 12/28 14:04
104F:推 Veyron :如果沒加渦輪的話,我覺得280匹不太可能吧.. 12/28 14:05
105F:→ Veyron :光是Ram Air有可能增加60匹馬力嗎?? 12/28 14:06
106F:→ UmbraEric :mototown.com.tw/MCN/mcn.php?m=post&p_id=919 12/28 14:56
107F:→ UmbraEric :重車論壇前一陣子有報過了,是有推進器模式,可以暫時 12/28 14:57
108F:→ UmbraEric :推到280bhp,不過是什麼方式就不知道了,只是只能一下 12/28 14:58
109F:→ UmbraEric :沒辦法一直輸出280bhp 12/28 14:58
110F:→ F0110K :阿斯拉要問世了嗎..不死鳥之翼!!! 12/28 15:12
111F:推 freeasa :267萬我可以買4台全新60萬公升級車還有剩買裝備的錢 12/28 15:56
112F:→ freeasa :不過拿來付房子的頭期款好像比較實在 @.@a 12/28 15:57
113F:推 a0181 :我這次中威力彩頭獎的稅金 就可以買好幾台了~~(菸) 12/28 16:01
114F:推 Wickl :267萬可沒有加稅...加上可能破500... 12/28 16:12
115F:推 laback :四大天王改一改 也是有機會跑320的 12/28 16:36
116F:推 knightkid :買一台M1應該就可以跑到320了吧 12/28 17:26
117F:推 mypower :等出了我再去買一台:XD 12/28 17:53
118F:→ enzo31182 :10R不是可以破三百 12/28 17:58
119F:推 cobeycobey :到底是280匹還是220匹? 12/28 18:57
120F:→ cobeycobey :計算方式不同吧? 12/28 18:57
121F:→ UmbraEric :引擎是220匹,不過有boots mode可使用,能暫時把馬力推 12/28 19:47
122F:→ UmbraEric :到280匹 12/28 19:48
123F:推 HIRU :寫這篇報導的應該再去估狗一下道奇的戰斧... 12/28 23:18
124F:推 zadsrfzc :Y2K那CC數... 12/29 00:34
125F:推 ACE881 :殼怎麼那麼醜 很像台灣出給FZR的改裝殼..XD 12/29 07:23
126F:推 laback :還不難看啦 簡單 沒花樣的殼我覺得還不賴 12/29 12:45
127F:推 t264705 :我也有看到這篇..還穿聖誕裝...車帥唷! 12/30 16:30
128F:→ onion7528 :其實大為很想自己買一台吧XD 01/02 22:52